Location: Bremen
(53.0793°N, 8.8017°E)
Time: 18:21:20
(UTC+01:00)

Envisat - Visible Passes

Search period start: 27 February 2024 00:00
Search period end: 08 March 2024 00:00
Orbit: 762 x 764 km, 98.3° (Epoch: 27 February)

Date Brightness Start Highest point End Pass type
(mag) Time Alt. Az. Time Alt. Az. Time Alt. Az.
27 Feb 4.6 03:15:08 10° NNE 03:18:52 32° ENE 03:18:52 32° ENE visible
27 Feb 3.3 04:54:03 10° N 04:58:52 44° WNW 04:59:02 44° WNW visible
27 Feb 5.0 06:35:59 10° NW 06:36:39 10° NW 06:37:18 10° NW visible
28 Feb 5.4 02:38:38 10° NE 02:41:16 17° ENE 02:41:16 17° ENE visible
28 Feb 2.9 04:16:34 10° NNE 04:21:27 79° NNW 04:21:27 79° NNW visible
28 Feb 4.5 05:56:40 10° NNW 05:59:57 18° NW 06:01:36 15° WNW visible
29 Feb 3.7 03:39:20 10° NNE 03:43:51 50° E 03:43:51 50° E visible
29 Feb 3.8 05:18:42 10° N 05:23:05 30° WNW 05:24:01 28° W visible
01 Mar 4.8 03:02:25 10° NE 03:06:16 27° E 03:06:16 27° E visible
01 Mar 3.1 04:41:04 10° N 04:46:02 54° WNW 04:46:26 52° W visible
01 Mar 4.9 06:21:57 10° NNW 06:23:58 12° NW 06:26:00 10° WNW visible
02 Mar 5.6 02:26:17 10° NE 02:28:40 14° E 02:28:40 14° E visible
02 Mar 2.9 04:03:40 10° NNE 04:08:47 81° ESE 04:08:50 81° ESE visible
02 Mar 4.3 05:43:29 10° N 05:47:13 21° NW 05:49:00 18° W visible
03 Mar 4.0 03:26:31 10° NNE 03:31:15 42° E 03:31:15 42° E visible
03 Mar 3.6 05:05:40 10° N 05:10:17 36° WNW 05:11:25 32° W visible
04 Mar 5.0 02:49:47 10° NE 02:53:39 22° E 02:53:39 22° E visible
04 Mar 2.9 04:28:06 10° N 04:33:10 67° WNW 04:33:49 60° WSW visible
04 Mar 4.7 06:08:31 10° NNW 06:11:16 15° NW 06:14:00 10° W visible
05 Mar 5.7 02:14:26 10° ENE 02:15:50 11° E 02:16:03 11° E visible
05 Mar 3.2 03:50:47 10° NNE 03:55:51 65° ESE 03:56:14 62° SE visible
05 Mar 4.1 05:30:21 10° N 05:34:28 25° WNW 05:36:24 20° W visible
06 Mar 4.3 03:13:44 10° NNE 03:18:21 33° E 03:18:38 33° ESE visible
06 Mar 3.3 04:52:38 10° N 04:57:27 44° WNW 04:58:48 36° WSW visible
07 Mar 5.2 02:37:14 10° NE 02:40:38 18° E 02:41:02 17° E visible
07 Mar 2.8 04:15:10 10° NNE 04:20:16 83° WNW 04:21:13 60° SSW visible
07 Mar 4.5 05:55:14 10° NNW 05:58:33 18° NW 06:01:23 12° W visible
